Location: Minucciano
(44.1667°N, 10.2167°E)
Time: 03:54:33
(UTC+00:00)

Daily predictions for brighter satellites

Satellite Brightness Start Highest point End
(mag) Time Altitude Azimuth Time Altitude Azimuth Time Altitude Azimuth
Cosmos 1825 2.1 00:13:02 69° ESE 00:13:12 71° E 00:16:58 10° NNE
Cosmos 540 Rocket 3.7 00:15:11 42° SSE 00:16:32 55° ESE 00:21:32 10° NNE
DELTA 2 R/B (1) 3.9 00:16:58 42° SSE 00:16:59 42° SSE 00:22:11 10° E
Cosmos 1408 3.0 00:19:18 50° W 00:19:21 50° WNW 00:22:58 10° N
Cosmos 990 Rocket 3.9 00:16:04 10° NNW 00:21:14 69° WSW 00:22:37 47° S
SL-16 R/B 3.6 00:19:56 17° WSW 00:23:24 31° NW 00:28:24 10° N
Cosmos 405 Rocket 2.5 00:23:36 70° W 00:23:44 71° W 00:27:25 10° N
Cosmos 841 Rocket 3.8 00:23:03 40° SSE 00:24:34 55° ESE 00:29:37 10° NNE
Cosmos 2058 2.9 00:24:23 59° SSE 00:25:01 73° E 00:29:07 10° NNE
Cosmos 1242 Rocket 3.8 00:21:46 10° N 00:25:08 36° ENE 00:26:09 30° ESE
USA 229 DEB 3.8 00:22:35 28° SW 00:26:07 67° NW 00:32:57 10° NE
USA 229 3.8 00:22:43 29° SW 00:26:13 67° NW 00:33:03 10° NE
Cosmos 1656 Rocket 3.7 00:21:16 10° NNW 00:26:59 79° ENE 00:30:16 26° SSE
Cosmos 2221 2.7 00:22:51 10° N 00:27:08 63° E 00:28:24 42° SE
X-37B 1.0 00:28:47 58° ENE 00:28:47 58° ENE 00:31:29 10° E
Nadezhda 4 Rocket 3.9 00:30:48 36° S 00:33:30 82° E 00:39:39 10° N
NOSS 2-2 (C) 4.3 00:34:05 27° ESE 00:34:05 27° ESE 00:37:00 10° ENE
Cosmos 1898 Rocket 3.5 00:29:21 10° NNW 00:34:32 67° WSW 00:36:11 42° S
Cosmos 1937 Rocket 3.5 00:29:31 10° NNW 00:34:53 90° ENE 00:37:19 33° SSE
NOSS 3-1 (C) 4.4 00:31:11 16° WSW 00:35:11 38° NW 00:41:08 10° NNE
YAOGAN 11 4.1 00:35:34 51° SSW 00:36:32 68° WSW 00:41:02 10° NNW
Cosmos 2369 Rocket 2.3 00:31:27 10° NNW 00:37:03 57° WSW 00:38:58 39° SSW
USA 307 3.3 00:38:07 43° SSE 00:38:23 43° SE 00:42:25 10° ENE
Aureole 3 Rocket 4.0 00:34:58 10° N 00:38:51 47° E 00:41:59 21° SE
CREW DRAGON DEMO-1 DEB 4.4 00:40:05 24° NNW 00:40:06 24° NNW 00:42:12 10° NE
SJ 16-02 3.3 00:37:41 10° WNW 00:40:01 16° W 00:40:01 16° W
ARGOS Delta rocket 4.3 00:38:51 10° NNE 00:44:21 67° E 00:46:49 33° S
NOSS 3-1 (A) 3.9 00:42:41 23° WSW 00:45:54 51° NW 00:52:06 10° NNE
ATLAS 5 CENTAUR R/B 1.9 00:48:04 38° SSE 00:48:44 42° ESE 00:52:46 10° NE
Cosmos 2263 4.2 00:45:08 10° NNW 00:50:44 61° WSW 00:53:06 34° S
CZ-4 R/B 4.1 00:47:23 10° N 00:51:56 55° WNW 00:53:33 36° SW
Helios 1B rocket 3.1 00:48:46 10° NNE 00:52:43 46° E 00:54:08 32° SSE
Cosmos 1814 Rocket 4.1 00:51:51 35° S 00:53:58 68° ESE 00:59:07 10° NNE
Cosmos 1633 2.8 00:53:22 46° SE 00:54:04 57° E 00:57:32 10° NNE
USA 308 3.0 00:53:27 48° S 00:54:16 58° SE 00:58:26 10° ENE
ADEOS Rocket 4.2 00:47:26 10° SE 00:54:21 48° ENE 01:00:39 10° N
Cosmos 1932 4.4 00:50:05 10° NW 00:56:14 63° WSW 01:00:03 24° SSE
UNK 4.0 00:54:26 25° SSE 00:57:02 68° ENE 01:01:39 10° N
Helios 1A 3.5 01:00:06 38° WSW 01:00:42 40° W 01:04:41 10° NNW
Cosmos 1606 2.6 00:59:20 10° N 01:03:11 81° W 01:04:13 47° S
Cosmos 1570 Rocket 4.0 01:01:44 34° SSW 01:04:02 83° ESE 01:09:17 10° NNE
SL-16 R/B 2.5 00:59:52 21° SSE 01:04:17 90° NE 01:10:31 10° NNW
Cosmos 1933 4.5 01:04:44 10° N 01:08:37 40° ENE 01:11:43 15° SE
Cosmos 372 Rocket 3.9 01:04:35 10° NNW 01:09:51 79° WSW 01:13:10 23° SSE
USA 290 2.1 01:11:15 60° S 01:11:45 82° ESE 01:14:59 10° NNE
USA 305 2.8 01:10:32 38° SW 01:12:05 85° SE 01:16:21 10° NE
CZ-4C R/B 4.1 01:11:38 10° SE 01:14:23 15° ESE 01:17:22 10° ENE
Cosmos 1092 Rocket 3.9 01:11:05 28° SSW 01:14:33 82° W 01:20:44 10° N
Lacrosse 4 Rocket 1.6 01:12:01 10° NNW 01:16:06 68° ENE 01:20:07 10° SE
Cosmos 2098 Rocket 3.9 01:15:08 29° SW 01:17:29 46° W 01:21:52 10° N
Cosmos 2208 Rocket 4.1 01:16:33 30° SSW 01:19:22 90° ESE 01:24:52 10° NNE
USA 267 4.4 01:19:19 21° SW 01:19:26 21° WSW 01:24:14 10° WNW
BREEZE-M R/B 2.5 01:18:12 35° SW 01:19:33 70° SSE 01:24:35 10° ENE
Meteor 2-19 Rocket 4.4 01:16:27 27° SSW 01:19:57 74° W 01:26:06 10° N
Resurs 1-4 Rocket 2.2 01:16:15 10° N 01:21:32 68° WNW 01:24:23 28° SSW
Cosmos 1437 Rocket 4.1 01:18:57 10° NW 01:22:01 23° W 01:22:18 22° W
Meteor 1-29 3.4 01:22:10 10° NNE 01:25:31 52° E 01:26:57 29° SSE
SL-4 R/B 4.0 01:23:35 10° NW 01:26:45 26° N 01:29:45 10° ENE
MINOTAUR 4 R/B 4.1 01:26:32 23° SSE 01:28:35 75° ENE 01:32:08 10° N
Cosmos 1428 Rocket 4.5 01:24:47 24° SSW 01:28:48 80° W 01:35:08 10° N
Landsat 4 4.1 01:27:38 10° NNE 01:31:23 58° E 01:33:22 25° S
NOSS 2-2 (D) 3.1 01:30:21 35° WSW 01:31:37 67° NW 01:35:16 10° NNE
NPP 3.7 01:27:21 10° N 01:32:43 69° WNW 01:35:57 24° SSW
ADEOS II 2.2 01:27:56 10° NNE 01:33:13 74° ESE 01:36:49 21° S
Cosmos 921 Rocket 3.8 01:32:38 25° WSW 01:34:26 37° WNW 01:38:21 10° N
USA 306 3.0 01:32:05 24° WSW 01:34:30 69° NNW 01:38:45 10° NE
Meteor 2-3 Rocket 3.8 01:31:29 20° S 01:35:25 76° E 01:41:00 10° NNE
Lacrosse 5 rocket 4.0 01:33:13 10° NNW 01:35:58 20° NNE 01:38:45 10° ENE
Cosmos 1943 4.4 01:33:25 16° WSW 01:37:10 31° NW 01:42:10 10° N
FALCON 9 DEB 2.9 01:34:17 10° WNW 01:37:41 78° SW 01:41:03 10° SE
CZ-2D R/B 2.6 01:35:11 10° N 01:40:10 48° WNW 01:43:15 22° SW
Alouette 2 Rocket 4.4 01:38:08 10° N 01:41:34 43° ENE 01:45:37 10° SSE
ASTEX 1 4.4 01:39:50 10° SSE 01:44:32 45° ENE 01:49:13 10° N
Cosmos 2151 3.2 01:44:56 26° SW 01:47:03 52° WNW 01:51:11 10° N
IDEFIX/ARIANE 42P 3.2 01:42:29 10° NNE 01:47:37 53° E 01:52:17 12° S
AQUA 4.2 01:47:40 10° N 01:52:18 51° WNW 01:55:17 21° SW
Cosmos 1437 4.2 01:54:03 10° NW 01:55:51 17° W 01:55:51 17° W
Meteor 1-26 Rocket 4.3 01:50:39 10° NNW 01:56:31 83° W 02:02:30 10° S
DELTA 2 R/B (1) 3.7 01:57:41 10° WSW 02:03:00 54° S 02:08:24 10° ESE
X-37B 0.4 02:01:49 10° W 02:04:59 72° SSW 02:08:08 10° ESE
CBERS-1 4.0 02:01:45 10° NNE 02:06:56 90° WNW 02:11:27 14° SSW
BREEZE-M DEB (TANK) 2.8 02:04:54 10° WNW 02:07:06 39° NNE 02:09:41 10° E
IRS-1D 3.5 02:02:01 10° N 02:07:09 72° WNW 02:11:14 16° SSW
Cosmos 1812 3.4 02:07:12 10° N 02:10:59 54° E 02:14:44 10° SSE
Cosmos 1553 Rocket 4.1 02:05:07 10° NNW 02:11:20 63° W 02:17:24 10° S
Cosmos 2292 Rocket 3.3 02:09:52 22° SW 02:11:20 37° W 02:14:08 10° N
SL-08 R/B 4.5 02:07:48 10° SE 02:12:14 45° ENE 02:16:45 10° N
CZ-2C R/B 4.4 02:11:36 10° NE 02:15:35 24° E 02:19:26 10° SSE
FALCON 9 DEB 3.7 02:13:31 10° NW 02:16:37 55° NNE 02:19:41 10° ESE
USA 281 3.2 02:10:03 10° SSE 02:16:38 88° WSW 02:23:16 10° NNW
Meteor 2-14 Rocket 4.5 02:11:40 13° SSW 02:17:09 70° W 02:23:17 10° N
GPS 2-04 Rocket1 3.9 02:15:43 18° SW 02:17:24 23° S 02:20:31 10° SE
S3M 4.0 02:11:15 10° N 02:17:26 83° W 02:23:39 10° S
Cosmos 1782 3.0 02:13:57 10° NNW 02:17:53 55° W 02:21:41 11° S
USA 307 3.9 02:14:22 10° W 02:18:24 41° NNW 02:22:26 10° NE
Meteor 2-21 Rocket 4.5 02:12:38 10° S 02:18:46 87° W 02:25:00 10° N
Cosmos 1271 Rocket 2.6 02:16:06 10° NNW 02:19:51 81° W 02:23:36 10° S
MSX 4.0 02:14:15 10° NNE 02:20:02 76° ESE 02:25:46 10° S
CZ-4C R/B 2.9 02:20:48 10° S 02:24:14 66° WSW 02:27:41 10° NNW
ERBS 2.2 02:24:39 16° SW 02:27:07 78° NW 02:30:22 10° NE
Helios 1B rocket 4.4 02:24:58 10° NNW 02:27:36 17° WNW 02:30:13 10° WSW
Cosmos 1328 Rocket 3.6 02:27:35 10° NNW 02:31:54 61° W 02:36:12 10° S
NOSS 3-2 (A) 4.4 02:25:19 10° NW 02:32:52 76° NE 02:41:28 10° SE
ATLAS 5 CENTAUR R/B 3.2 02:30:08 10° W 02:33:30 24° NW 02:37:14 10° NNE
FALCON 9 DEB 2.7 02:30:29 10° WNW 02:33:34 76° SW 02:36:37 10° SE
USA 308 4.2 02:30:31 10° W 02:34:25 35° NNW 02:38:21 10° NE
Spot 1 4.5 02:29:55 10° S 02:34:57 66° WSW 02:39:50 10° NNW
SeaSat 1 2.5 02:31:17 10° NNE 02:36:14 88° WNW 02:41:10 10° SSW
ADEOS Rocket 4.0 02:33:19 10° SSW 02:39:53 35° W 02:46:00 10° NNW
FALCON 9 DEB 2.8 02:37:19 10° WNW 02:40:27 86° SW 02:43:33 10° SE
Meteor 2-6 Rocket 4.3 02:35:00 10° NNW 02:40:54 78° W 02:46:37 10° S
FALCON 9 DEB 2.8 02:40:45 10° WNW 02:43:50 65° SW 02:46:52 10° SE
ALOS 4.3 02:40:26 10° NE 02:44:23 26° E 02:48:18 10° SSE
Cosmos 1980 Rocket 4.5 02:41:12 10° N 02:46:04 29° NE 02:50:54 10° ESE
Cosmos 1833 Rocket 3.2 02:41:43 10° S 02:47:14 59° ESE 02:52:48 10° NNE
SL-16 R/B 4.2 02:45:25 10° WSW 02:48:41 15° W 02:51:57 10° NW
Cosmos 2228 Rocket 4.2 02:45:38 10° N 02:50:01 48° ENE 02:54:19 10° SSE
IRS-P3 4.3 02:46:29 10° N 02:51:45 64° WNW 02:57:00 10° SSW
Tianhe-1 2.7 02:49:45 10° SSW 02:52:15 22° SSE 02:54:47 10° ESE
Lacrosse 4 Rocket 3.3 02:52:56 10° W 02:54:09 11° WSW 02:55:21 10° WSW
Meteor 1-27 Rocket 4.2 02:48:36 10° N 02:54:09 65° ENE 02:59:37 10° SSE
Cosmos 1125 Rocket 4.4 02:49:49 10° NW 02:54:20 29° W 02:58:49 10° SSW
Cosmos 1151 Rocket 4.2 02:51:51 10° NNW 02:55:22 25° W 02:58:52 10° SW
Cosmos 2266 Rocket 4.2 02:50:10 10° SSW 02:56:08 54° WNW 03:02:04 10° N
CZ-4B R/B 3.7 02:54:18 10° N 02:59:33 71° WNW 03:04:43 10° SSW
Resurs 1-4 Rocket 4.3 02:59:15 10° NW 03:00:22 11° NW 03:01:29 10° WNW
ARIANE 5 R/B 2.6 02:55:44 10° N 03:00:42 65° WNW 03:05:39 10° SSW
CZ-4C R/B 2.1 02:57:00 10° SW 03:01:50 74° NW 03:07:43 10° NE
